FW5242 Weather Reports


time (UTC)temp
F
wind
direction
speed
knots
gust
knots
rain 1hr
in
rain 24hr
in
rain mn
in
humidity
%
barometer
mb
20260507030018 45 360 0.0 0.9 0.00 0.19 0.19 93 1012.4
20260507024515 45 360 0.0 0.9 0.00 0.19 0.19 94 1012.6
20260507023014 46 360 0.0 0.9 0.00 0.19 0.19 94 1012.5
20260507021515 46 360 0.0 0.9 0.00 0.19 0.19 94 1012.9
20260507020014 46 360 0.0 0.9 0.00 0.19 0.19 94 1012.9
20260507014516 46 360 0.0 0.0 0.00 0.19 0.19 93 1013.1
20260507013016 46 360 0.0 1.7 0.00 0.19 0.19 93 1013.0
20260507011517 46 360 0.0 1.7 0.00 0.19 0.19 94 1012.9
20260507010008 46 360 0.0 0.9 0.00 0.19 0.19 94 1012.9
20260507004515 46 360 0.0 0.9 0.00 0.19 0.19 93 1012.5
20260507003002 46 360 0.0 1.7 0.00 0.19 0.19 93 1012.1
20260507001501 47 360 0.0 0.9 0.00 0.19 0.19 93 1011.7
20260507000100 47 360 0.0 0.9 0.00 0.19 0.19 93 1011.9
20260506234602 47 360 0.0 1.7 0.00 0.19 0.19 93 1011.6
20260506233059 47 360 0.0 4.3 0.01 0.19 0.19 93 1011.5
20260506231558 48 360 0.0 2.6 0.01 0.19 0.19 93 1011.4
20260506230058 48 360 0.0 1.7 0.01 0.19 0.19 93 1011.3
20260506224550 48 360 0.0 1.7 0.01 0.19 0.19 93 1011.2
20260506223054 48 360 0.9 2.6 0.00 0.18 0.18 92 1010.7
20260506221544 49 360 0.0 4.3 0.00 0.18 0.18 93 1010.2
20260506220042 49 360 0.0 2.6 0.00 0.18 0.18 93 1010.0
20260506214539 50 360 0.9 2.6 0.00 0.18 0.18 92 1009.9
20260506213054 50 360 0.9 3.5 0.01 0.18 0.18 92 1009.4
20260506211547 50 360 0.9 4.3 0.01 0.18 0.18 92 1008.9
20260506210034 51 360 0.9 7.0 0.03 0.18 0.18 91 1008.7
20260506204527 53 360 0.9 2.6 0.03 0.18 0.18 91 1008.1
20260506203029 54 360 0.9 2.6 0.02 0.17 0.17 90 1008.0
20260506201533 57 360 1.7 7.8 0.01 0.16 0.16 88 1007.3
20260506200025 60 360 0.9 4.3 0.00 0.15 0.15 91 1006.5
20260506194526 60 360 0.9 5.2 0.00 0.15 0.15 92 1006.7
20260506193018 59 360 0.9 3.5 0.00 0.15 0.15 92 1006.7
20260506191516 59 360 0.0 4.3 0.00 0.15 0.15 92 1006.8
20260506190015 59 360 0.9 2.6 0.00 0.15 0.15 92 1006.9
20260506184514 59 360 0.0 4.3 0.00 0.15 0.15 93 1006.9
20260506183023 59 360 0.9 5.2 0.00 0.15 0.15 93 1007.0
20260506181513 59 360 1.7 4.3 0.00 0.15 0.15 93 1007.1
20260506180014 59 360 1.7 9.6 0.01 0.15 0.15 93 1007.3
20260506174512 59 360 1.7 5.2 0.01 0.15 0.15 93 1007.0
20260506173010 59 360 0.9 4.3 0.01 0.15 0.15 94 1007.0
20260506171510 59 360 2.6 5.2 0.01 0.15 0.15 93 1007.2
20260506170008 58 360 0.0 3.5 0.00 0.14 0.14 93 1007.4
20260506164508 58 360 1.7 4.3 0.00 0.14 0.14 93 1007.5
20260506163008 58 360 2.6 10.4 0.01 0.14 0.14 92 1007.5
20260506161508 59 360 1.7 7.0 0.02 0.14 0.14 93 1007.3
20260506160006 58 360 2.6 7.0 0.02 0.14 0.14 93 1007.4
20260506154504 58 360 2.6 7.8 0.03 0.14 0.14 93 1007.5
20260506153004 58 360 2.6 7.8 0.02 0.13 0.13 92 1007.5
20260506151505 58 360 1.7 5.2 0.01 0.12 0.12 93 1007.6
20260506150004 58 360 2.6 7.8 0.01 0.11 0.11 93 1007.5
20260506144501 58 360 2.6 8.7 0.03 0.11 0.11 93 1007.1
20260506143108 57 360 1.7 7.0 0.05 0.11 0.11 93 1007.4
20260506141558 57 360 1.7 5.2 0.06 0.11 0.11 94 1007.4
20260506140056 56 360 0.9 4.3 0.09 0.11 0.11 94 1007.5
20260506134553 56 360 0.0 0.9 0.07 0.08 0.08 93 1008.0
20260506133053 56 360 0.0 0.9 0.06 0.06 0.06 93 1008.2
20260506131555 56 360 0.0 0.0 0.05 0.05 0.05 93 1008.6
20260506130059 56 360 0.0 1.7 0.02 0.02 0.02 93 1008.8
20260506124551 56 360 0.0 1.7 0.01 0.01 0.01 92 1008.6
20260506123051 56 360 0.0 0.9 0.00 0.00 0.00 92 1008.0
20260506121553 56 360 0.0 0.9 0.00 0.00 0.00 92 1007.9
20260506120049 56 360 0.0 0.9 0.00 0.00 0.00 91 1008.0
20260506114550 56 360 0.0 0.9 0.00 0.00 0.00 91 1008.1
20260506113046 55 360 0.0 0.9 0.00 0.00 0.00 90 1008.0
20260506111546 55 360 0.0 0.9 0.00 0.00 0.00 89 1007.9
20260506110045 55 360 0.0 0.9 0.00 0.00 0.00 90 1008.0
20260506104543 55 360 0.0 0.9 0.00 0.00 0.00 89 1007.8
20260506103051 55 360 0.0 0.9 0.00 0.00 0.00 89 1007.2
20260506101542 55 360 0.0 0.9 0.00 0.00 0.00 88 1007.5
20260506100042 55 360 0.0 0.9 0.00 0.00 0.00 87 1007.3
20260506094541 55 360 0.0 0.0 0.00 0.00 0.00 87 1007.6
20260506093040 55 360 0.0 0.9 0.00 0.00 0.00 87 1007.2
20260506091539 55 360 0.0 0.9 0.00 0.00 0.00 87 1007.2
20260506090046 55 360 0.0 1.7 0.00 0.00 0.00 87 1007.5
20260506084545 55 360 0.0 1.7 0.00 0.00 0.00 88 1007.6
20260506083035 54 360 0.0 0.9 0.00 0.00 0.00 88 1007.8
20260506081539 54 360 0.0 1.7 0.00 0.00 0.00 89 1007.6
20260506073032 54 360 0.0 1.7 0.00 0.00 0.00 90 1007.6
20260506071530 54 360 0.0 0.9 0.00 0.00 0.00 90 1007.8
20260506061543 53 360 0.0 0.9 0.00 0.00 0.00 88 1008.4
20260506044520 54 360 0.0 1.7 0.00 0.00 0.00 86 1008.7
20260506043026 54 360 0.0 0.9 0.00 0.00 0.00 85 1008.7
20260506041511 54 360 0.0 0.9 0.00 0.00 0.00 84 1008.9
20260506040009 55 360 0.0 1.7 0.00 0.00 0.00 85 1009.0
20260506034508 55 360 0.0 0.9 0.00 0.00 0.00 84 1009.0
20260506033011 56 360 0.0 1.7 0.00 0.00 0.00 82 1009.1
20260506031507 56 360 0.0 0.9 0.00 0.00 0.00 82 1009.0